Wind_Speed
3 5 8 9 11 12 12 12 13 10 9 10 11 13 9 7 4 4 7 10 7 8 9 7 2 5 5 3 2 4 3 5 3 3 6 7 6 7 19 28 28 27 25
5 6 10 11 13 12 12 14 13 14 12 10 12 12 7 7 5 7 8 13 11 9 5 9 9 6 5 4 2 2 5 3 4 4 7 8 7 7 18 27 25 25 25
6 9 10 13 13 10 6 9 9 9 12 12 10 7 6 8 7 6 8 10 8 9 7 5 5 5 3 4 6 9 7 9 7 7 8 11 10 8 16 26 25 24 23
6 8 9 12 15 22 11 8 5 7 9 10 9 7 7 9 5 4 6 5 7 14 10 6 4 4 7 5 4 6 12 16 12 11 12 11 13 12 14 24 25 25 23
6 8 10 12 13 17 17 4 4 6 2 2 3 7 9 10 6 4 2 5 5 7 10 11 12 10 7 7 7 11 6 11 10 12 13 13 15 17 15 21 26 26 24
4 5 8 11 14 17 18 16 11 10 7 6 8 7 7 7 4 3 5 4 6 8 9 10 7 8 7 8 9 12 5 8 7 16 15 15 16 19 19 18 24 28 27
3 4 7 8 11 15 16 17 14 12 12 10 10 10 13 12 1 5 4 6 5 6 6 8 10 9 9 10 9 9 9 8 6 11 19 19 18 21 22 21 22 27 29
3 4 4 6 9 12 13 14 13 11 9 9 9 9 10 11 9 4 6 2 5 6 9 10 10 10 9 9 10 9 8 6 3 6 17 23 23 22 24 24 24 26 29
6 4 3 4 6 8 9 9 9 7 7 8 7 9 10 9 7 7 8 8 10 10 11 13 12 11 10 6 5 6 6 6 4 4 6 9 26 28 24 25 26 27 29
6 4 3 4 5 6 6 5 5 5 6 6 7 8 9 10 10 9 9 8 10 13 13 10 10 9 9 8 7 7 6 6 5 4 4 4 1 11 20 25 27 30 32
3 4 3 3 6 6 7 6 6 6 6 7 8 11 12 14 15 14 14 13 14 17 15 14 13 12 12 10 9 9 9 8 7 5 4 2 4 3 11 25 29 26 30
4 6 3 4 7 7 7 7 7 9 10 12 13 14 15 15 16 17 18 18 17 18 16 18 16 16 15 14 13 14 12 11 10 8 8 8 10 10 12 15 14 17 23
8 3 4 6 8 8 9 12 14 14 14 14 15 16 17 18 18 18 20 20 18 19 19 18 20 21 21 19 17 18 17 15 15 16 14 12 11 13 16 18 19 19 19
2 5 5 7 8 10 12 13 14 16 16 17 15 15 17 17 18 21 22 24 20 19 19 18 17 24 23 21 21 21 23 24 22 21 21 21 20 18 19 20 21 23 23
4 6 7 8 10 12 14 16 18 18 20 18 18 19 20 21 21 23 25 27 28 20 16 15 19 22 23 21 20 23 25 26 28 28 28 27 27 27 27 27 27 26 26
7 10 11 11 11 13 14 16 16 15 18 17 18 19 20 23 24 26 29 29 29 25 20 18 20 22 19 19 20 23 26 29 31 32 32 32 33 33 32 32 32 32 32
12 12 12 14 15 16 17 18 20 20 20 21 22 23 24 23 24 29 28 26 25 24 22 21 22 25 27 26 28 31 31 33 35 36 36 37 36 36 37 36 34 33 33
12 13 16 19 21 23 26 30 30 29 28 28 29 31 26 23 22 27 22 22 24 25 23 24 22 25 27 29 30 33 35 37 38 41 42 39 41 40 39 39 39 37 35
16 17 18 18 18 26 30 33 33 37 36 34 30 26 23 24 21 25 25 23 25 28 26 26 25 26 27 27 31 33 34 36 38 38 37 40 40 41 41 41 40 40 41
22 25 23 25 25 41 26 34 30 33 39 32 27 29 29 31 22 25 25 22 23 23 27 27 26 25 25 27 30 33 36 38 40 42 45 45 45 42 42 42 42 42 41
24 30 31 28 36 36 42 29 35 31 35 29 22 22 24 30 23 26 26 24 29 25 24 25 24 26 28 29 31 32 35 37 40 42 45 48 46 47 43 37 36 37 40
28 32 32 38 44 44 50 43 27 28 25 26 25 20 17 22 22 27 30 23 14 23 22 22 24 27 29 31 32 35 38 38 40 37 37 43 42 42 40 34 30 31 31
23 31 34 36 42 45 44 45 24 17 16 23 20 15 17 20 23 24 19 20 21 21 20 23 25 28 29 32 36 39 40 39 36 30 29 29 30 30 29 30 30 31 32
25 25 30 34 39 42 44 38 32 23 18 20 22 22 17 15 13 15 19 22 22 20 20 24 28 30 31 34 35 37 36 37 34 31 28 27 23 24 23 23 26 27 26
28 30 33 32 39 44 42 34 29 27 24 21 19 18 14 15 17 17 17 20 19 19 22 26 30 31 30 33 33 31 32 32 30 30 28 27 26 25 25 23 23 26 27
27 30 34 36 36 41 41 34 30 27 24 21 16 17 16 17 20 18 19 19 20 21 24 29 31 29 31 33 34 34 31 29 31 33 32 31 29 25 26 26 22 21 23
Wind_Direction
0 338 338 340 335 316 308 305 309 312 302 306 309 313 303 303 328 326 336 352 331 343 303 313 324 10 31 350 244 145 136 125 116 116 157 164 166 157 173 170 167 167 168
0 345 353 3 350 330 300 293 292 285 292 293 316 311 295 294 306 327 353 351 354 344 330 288 323 336 336 350 47 319 215 152 145 176 181 178 175 164 175 176 174 171 172
350 359 3 2 359 343 293 275 283 275 265 276 307 315 334 305 290 334 347 351 3 16 350 295 347 345 350 278 298 294 254 232 236 208 210 199 188 178 181 181 181 179 178
6 9 13 3 356 352 260 252 274 274 304 259 289 295 326 323 318 287 342 34 39 58 65 75 99 110 73 43 343 265 244 249 235 212 208 211 206 193 184 192 192 188 187
13 14 23 25 18 7 33 30 358 309 329 346 329 315 315 312 309 341 54 91 62 60 52 45 47 57 53 17 0 338 286 228 209 215 205 209 210 205 198 196 200 199 196
29 41 40 35 38 41 47 59 59 48 47 30 21 10 348 333 260 257 116 88 57 35 41 31 21 7 355 343 341 347 18 171 211 218 203 214 210 210 207 205 204 205 204
339 54 61 38 44 49 54 62 62 54 53 48 29 22 24 17 95 139 127 47 21 14 20 7 6 356 349 341 345 344 352 15 213 241 227 224 226 218 210 209 210 208 211
88 48 55 38 48 54 53 58 58 52 46 37 29 11 13 27 44 3 356 54 338 334 339 345 358 356 345 340 342 353 355 350 8 353 225 231 229 220 218 214 215 213 213
111 86 52 31 39 56 57 59 58 56 47 37 23 18 12 16 22 346 350 348 314 319 328 335 338 351 345 345 330 326 332 346 345 337 341 223 231 228 214 223 221 222 219
91 76 63 40 30 28 44 41 46 39 27 16 2 0 358 357 351 336 330 316 296 301 308 305 317 337 341 354 345 328 310 319 320 327 338 325 350 225 214 226 226 228 230
60 67 59 21 16 7 7 9 14 8 2 359 350 349 345 342 337 331 332 326 320 308 306 308 312 308 307 315 326 324 326 325 314 288 263 279 283 41 220 239 245 235 245
86 69 44 10 353 352 350 339 344 354 354 349 347 349 347 344 341 336 331 329 320 307 303 303 302 296 299 303 303 299 301 302 305 305 294 264 251 248 229 237 248 239 255
12 37 352 347 349 347 341 350 346 345 345 347 349 346 344 343 342 338 330 324 319 317 309 303 299 292 290 293 295 293 296 291 288 288 285 275 267 262 259 252 250 249 244
333 332 353 352 355 349 346 340 340 339 342 341 346 346 343 347 349 344 338 327 331 325 317 314 289 283 283 283 282 282 284 287 284 276 271 270 265 252 251 255 256 250 249
0 350 5 356 340 335 333 335 336 341 337 339 343 340 338 332 331 337 335 333 326 326 308 293 290 281 283 281 280 284 285 279 274 273 271 266 261 257 249 245 244 247 251
334 342 346 331 326 327 324 322 321 321 321 322 318 317 315 316 317 317 320 320 319 318 312 293 281 283 288 288 285 278 279 281 278 273 268 267 266 261 255 252 248 246 245
322 323 307 304 298 301 299 298 296 296 296 297 299 302 302 304 310 312 314 310 306 305 307 303 298 290 287 281 278 280 280 280 280 279 277 274 269 266 265 263 257 251 248
309 298 296 295 302 309 309 302 290 290 287 287 291 295 301 301 311 310 313 303 304 302 299 302 299 298 293 290 288 284 282 284 284 283 283 280 277 273 269 265 264 263 259
309 302 288 286 299 299 296 305 281 287 295 293 290 292 306 303 294 300 305 305 313 314 310 311 305 295 291 288 291 292 294 295 291 290 288 285 280 276 274 270 266 262 259
312 282 281 278 291 332 293 319 301 290 283 283 289 295 300 299 292 288 293 294 321 307 303 305 303 296 292 291 290 291 291 287 286 286 287 284 282 279 275 272 270 267 265
323 318 321 324 331 347 344 328 302 299 270 283 288 304 312 299 284 287 291 298 300 304 301 299 295 289 293 298 298 299 296 294 290 284 281 281 283 282 282 278 272 268 265
309 326 328 339 353 349 346 342 302 294 274 277 291 298 299 296 290 295 299 310 306 294 295 295 295 298 301 306 308 310 307 302 297 292 286 282 282 278 278 275 265 259 253
326 331 336 339 348 347 343 345 350 333 282 292 299 325 319 302 294 298 300 302 299 295 296 298 303 306 310 311 313 315 315 311 310 307 298 287 283 276 269 270 269 264 259
324 328 335 332 340 337 339 342 331 341 344 330 331 319 314 322 306 299 302 295 295 297 307 311 314 316 314 315 318 319 317 316 314 309 304 300 293 281 274 266 268 268 265
312 321 328 329 332 332 332 331 330 321 331 330 327 328 321 310 311 306 300 302 302 308 314 316 318 318 317 320 314 314 314 313 312 305 305 300 294 287 281 273 261 262 263
304 306 319 327 324 323 323 327 322 319 321 330 316 310 310 312 302 305 306 305 312 316 315 318 317 315 320 320 320 316 313 314 306 301 303 297 287 282 280 280 277 271 270
Height
5929 5928 5926 5924 5923 5922 5922 5922 5923 5922 5923 5922 5922 5921 5921 5922 5922 5921 5919 5918 5917 5916 5917 5916 5915 5914 5913 5913 5912 5912 5912 5912 5913 5914 5916 5917 5919 5920 5922 5923 5925 5928 5930
5926 5926 5923 5921 5921 5919 5920 5920 5920 5919 5920 5920 5920 5920 5919 5920 5919 5918 5918 5916 5915 5914 5914 5913 5912 5914 5912 5912 5911 5911 5911 5912 5913 5914 5915 5917 5919 5921 5922 5924 5927 5929 5931
5924 5922 5921 5921 5920 5918 5917 5915 5917 5918 5918 5919 5920 5919 5919 5919 5918 5918 5917 5917 5913 5911 5911 5910 5912 5912 5910 5910 5910 5909 5909 5910 5911 5913 5914 5916 5918 5920 5922 5924 5927 5929 5931
5923 5923 5922 5921 5920 5914 5912 5913 5915 5916 5916 5916 5918 5918 5918 5917 5916 5917 5918 5916 5914 5911 5912 5912 5911 5910 5910 5909 5908 5908 5907 5907 5909 5910 5912 5915 5917 5919 5921 5924 5927 5929 5932
5925 5925 5924 5921 5920 5916 5911 5910 5911 5914 5916 5916 5917 5917 5916 5915 5914 5915 5915 5916 5914 5913 5912 5913 5912 5911 5910 5909 5908 5906 5903 5903 5907 5909 5911 5912 5914 5917 5919 5921 5925 5928 5932
5926 5925 5925 5923 5921 5917 5915 5914 5915 5916 5917 5917 5916 5915 5914 5913 5913 5914 5914 5914 5914 5914 5913 5913 5912 5911 5910 5909 5907 5905 5902 5904 5905 5906 5907 5910 5912 5914 5917 5919 5922 5926 5929
5929 5926 5924 5925 5922 5920 5918 5917 5917 5918 5918 5918 5917 5917 5916 5916 5915 5913 5912 5914 5914 5914 5914 5912 5911 5910 5909 5908 5905 5904 5903 5903 5902 5902 5905 5907 5909 5911 5914 5917 5919 5922 5926
5927 5927 5925 5925 5924 5921 5919 5918 5918 5919 5919 5919 5918 5918 5918 5918 5916 5915 5915 5915 5914 5914 5913 5912 5911 5909 5907 5907 5906 5905 5904 5903 5901 5899 5900 5903 5905 5907 5911 5913 5917 5919 5922
5924 5925 5925 5925 5925 5922 5920 5919 5919 5920 5920 5919 5918 5918 5917 5918 5918 5915 5914 5914 5913 5913 5913 5911 5909 5909 5906 5904 5903 5903 5903 5902 5902 5901 5900 5899 5900 5902 5906 5910 5913 5916 5918
5922 5922 5924 5926 5925 5923 5921 5921 5920 5920 5921 5920 5919 5918 5918 5917 5916 5916 5915 5915 5913 5911 5911 5909 5907 5907 5905 5903 5902 5901 5900 5900 5900 5900 5900 5899 5895 5897 5901 5904 5908 5911 5913
5922 5921 5923 5924 5924 5923 5920 5920 5919 5919 5920 5920 5919 5918 5918 5917 5915 5914 5914 5912 5911 5908 5907 5905 5905 5904 5903 5902 5901 5900 5899 5898 5898 5898 5897 5898 5899 5898 5898 5902 5904 5905 5908
5920 5920 5922 5923 5923 5922 5921 5920 5920 5920 5919 5919 5918 5916 5916 5915 5912 5910 5909 5909 5907 5905 5905 5904 5903 5900 5899 5900 5900 5899 5899 5898 5896 5894 5895 5896 5896 5897 5898 5898 5898 5900 5901
5924 5923 5923 5924 5922 5921 5920 5921 5920 5919 5918 5917 5915 5914 5913 5911 5909 5906 5902 5901 5901 5898 5899 5898 5896 5895 5893 5894 5894 5893 5893 5892 5892 5892 5891 5891 5892 5892 5892 5893 5893 5893 5894
5926 5926 5924 5922 5920 5919 5919 5918 5917 5916 5915 5914 5912 5910 5909 5907 5904 5901 5899 5895 5895 5892 5890 5889 5888 5884 5886 5886 5885 5885 5886 5886 5886 5885 5885 5886 5885 5885 5885 5886 5887 5887 5887
5924 5923 5921 5918 5918 5917 5917 5916 5915 5913 5912 5911 5909 5908 5906 5903 5902 5899 5895 5891 5888 5889 5886 5884 5881 5880 5877 5877 5879 5879 5878 5878 5877 5877 5877 5877 5877 5878 5876 5876 5877 5878 5879
5920 5920 5915 5915 5914 5913 5912 5910 5909 5908 5905 5905 5904 5904 5903 5901 5897 5895 5892 5888 5884 5883 5881 5879 5875 5872 5873 5871 5871 5870 5868 5867 5866 5866 5866 5866 5867 5867 5868 5868 5868 5869 5870
5915 5913 5912 5911 5909 5908 5907 5904 5903 5902 5900 5898 5898 5896 5896 5895 5892 5889 5886 5882 5879 5876 5875 5873 5872 5868 5866 5866 5864 5860 5860 5857 5855 5854 5855 5855 5855 5856 5857 5858 5858 5859 5859
5912 5911 5910 5908 5906 5903 5903 5901 5896 5893 5892 5891 5889 5889 5887 5887 5886 5882 5879 5877 5874 5871 5869 5868 5867 5864 5859 5857 5857 5856 5853 5851 5847 5844 5843 5844 5843 5843 5844 5845 5847 5847 5849
5911 5908 5904 5902 5901 5897 5893 5892 5889 5889 5885 5884 5881 5879 5879 5876 5875 5875 5873 5870 5867 5864 5862 5861 5861 5859 5855 5851 5847 5845 5842 5840 5837 5837 5835 5831 5830 5829 5829 5831 5832 5834 5834
5905 5896 5895 5883 5881 5887 5886 5879 5878 5877 5878 5876 5876 5873 5871 5868 5867 5866 5864 5864 5862 5859 5856 5853 5853 5850 5848 5845 5842 5838 5836 5831 5827 5824 5822 5819 5818 5816 5816 5816 5818 5820 5821
5902 5896 5888 5870 5888 5889 5879 5870 5869 5867 5868 5869 5869 5866 5862 5861 5857 5859 5858 5856 5853 5852 5850 5847 5844 5843 5839 5836 5834 5830 5826 5822 5819 5816 5811 5806 5805 5802 5802 5802 5802 5803 5805
5897 5897 5890 5886 5883 5876 5871 5867 5859 5856 5855 5861 5859 5856 5853 5852 5854 5853 5853 5849 5846 5844 5841 5838 5837 5835 5831 5827 5823 5818 5813 5809 5805 5802 5800 5794 5791 5791 5790 5788 5789 5790 5792
5898 5891 5887 5884 5880 5873 5872 5865 5857 5855 5855 5857 5855 5849 5848 5849 5847 5845 5844 5843 5838 5836 5833 5831 5829 5827 5823 5820 5816 5807 5801 5796 5793 5790 5786 5784 5780 5779 5781 5778 5778 5778 5780
5892 5890 5886 5881 5877 5874 5868 5863 5858 5856 5854 5853 5850 5846 5844 5843 5842 5839 5837 5834 5832 5830 5827 5826 5823 5818 5814 5810 5804 5799 5794 5788 5784 5781 5779 5774 5774 5771 5771 5771 5769 5768 5769
5888 5884 5884 5880 5874 5869 5866 5862 5858 5853 5851 5849 5846 5843 5839 5839 5837 5835 5832 5829 5827 5824 5822 5820 5816 5811 5808 5802 5797 5792 5786 5781 5776 5773 5771 5768 5765 5764 5762 5762 5762 5761 5760
5884 5880 5878 5875 5870 5864 5860 5856 5853 5851 5847 5846 5841 5836 5834 5832 5830 5827 5823 5821 5819 5818 5816 5814 5810 5806 5802 5794 5788 5783 5779 5773 5770 5766 5763 5760 5757 5756 5754 5752 5752 5753 5753